Regional Weather Roundup
Issued by NWS

Home | Current Version | Previous Version | Graphics & Text | Print | Product List | Glossary On
Versions: 1 2 3 4 5 6 7 8 9 10 11 12 13 14 15 16 17 18 19 20 21 22 23 24 25 26 27 28 29 30 31 32 33 34 35 36 37 38 39 40 41 42 43 44 45 46 47 48 49 50
968
ASUS43 KLSX 130210
RWRMO

WEATHER SUMMARY FOR MISSOURI
NATIONAL WEATHER SERVICE SPRINGFIELD MO
800 PM CST FRI FEB 12 2016

NOTE: "FAIR" INDICATES FEW OR NO CLOUDS BELOW 12,000 FEET WITH NO
       SIGNIFICANT WEATHER AND/OR OBSTRUCTIONS TO VISIBILITY.
       CURRENT SKY AND/OR WEATHER CONDITIONS ARE NOT AVAILABLE FOR
       CHILLICOTHE AND FARMINGTON.

MOZ001>031-035>038-043-044-053-054-130300-
...NORTHERN AND WESTERN MISSOURI...

CITY           SKY/WX    TMP DP  RH WIND       PRES   REMARKS
KANSAS CTY INT CLEAR     22   9  57 N12       30.55R WCI  10
KANSAS C DTWN  CLEAR     26   7  44 N9        30.56R WCI  17
LEE`S SUMMIT   CLEAR     25   9  50 N15       30.53R WCI  13
ST JOSEPH      CLEAR     20   7  57 N8        30.59R WCI  10
CHILLICOTHE      N/A     20   2  45 N9        30.59R WCI   9
KIRKSVILLE     CLEAR     16   2  54 NW13      30.54R WCI   2

$$
MOZ066>068-077>081-088>096-101>105-130300-
...SOUTHWEST MISSOURI...

CITY           SKY/WX    TMP DP  RH WIND       PRES   REMARKS
SPRINGFIELD    CLEAR     32  16  51 N14       30.44R WCI  22
JOPLIN         PTCLDY    34  21  59 N12       30.48R WCI  25

$$
MOZ032>034-039>042-045>050-055>058-069>072-130300-
...CENTRAL MISSOURI...

CITY           SKY/WX    TMP DP  RH WIND       PRES   REMARKS
COLUMBIA       CLEAR     24  11  57 N14       30.49R WCI  12
JEFFERSON CITY CLEAR     28   9  44 N12       30.51R WCI  18
ROLLA          CLEAR     26  12  55 N8        30.43R WCI  18
SEDALIA        CLEAR     26   8  46 N16       30.52R WCI  14
WHITEMAN AFB   CLEAR     24   6  47 N15       30.51R WCI  11
WARRENSBURG    PTCLDY    27   9  46 N10       30.54R WCI  17
OSAGE BEACH    CLEAR     28   5  37 N7G16     30.48R WCI  21

$$
MOZ051-052-059>065-130300-
...EAST CENTRAL MISSOURI...

CITY           SKY/WX    TMP DP  RH WIND       PRES   REMARKS
ST LOUIS INTL  CLEAR     25   9  50 NW12G21   30.46R WCI  14
SPIRIT OF STL  CLEAR     25   8  48 NW12      30.47R WCI  14
ST CHARLES     CLEAR     23   8  52 NW20      30.48R WCI   8

$$
MOZ072>076-082>087-097>100-106>115-130300-
...SOUTH CENTRAL AND SOUTHEAST MISSOURI...

CITY           SKY/WX    TMP DP  RH WIND       PRES   REMARKS
CAPE GIRARDEAU CLEAR     30  19  63 N10       30.43R WCI  21
FARMINGTON     CLEAR     27  14  58 N9        30.43R WCI  18
POPLAR BLUFF   CLEAR     37  21  52 N13       30.40R WCI  29
WEST PLAINS    CLEAR     34  17  50 N6        30.41R WCI  29

$$




USA.gov is the U.S. government's official web portal to all federal, state and local government web resources and services.